Weather History for Hot Springs, VA

Change the Weather History Date:

Monday, February 24, 2014

  Actual Average Record
Temperature  
Mean Temperature 26 °F -  
Max Temperature 32 °F 37 °F 60 °F (2012)
Min Temperature 19 °F 23 °F 8 °F (1999)
Degree Days  
Heating Degree Days 40    
Moisture  
Dew Point 11 °F    
Average Humidity 58    
Maximum Humidity 100    
Minimum Humidity 31    
Precipitation  
Precipitation 0.00 in - - ()
Sea Level Pressure  
Sea Level Pressure 29.97 in    
Wind  
Wind Speed 19 mph (West)    
Max Wind Speed 28 mph    
Max Gust Speed 39 mph    
Visibility 10 miles    
Events Snow    
Averages and records for this station are not official NWS values.
T = Trace of Precipitation, MM = Missing Value Source: NWS Daily Summary

Daily Weather History Graph

Daily Weather History Graph

Search for Another Location

Airport:

Trip Planner

Search our weather history database for the weather conditions in past years. The results will help you decide how hot, cold, wet, or windy it might be!

Date:

Astronomy

Feb. 24, 2014 Rise Set
Actual Time 6:57 AM EST 6:07 PM EST
Civil Twilight 6:31 AM EST 6:34 PM EST
Nautical Twilight 6:00 AM EST 7:04 PM EST
Astronomical Twilight 5:30 AM EST 7:35 PM EST
Moon 2:51 AM EST (2/24) 1:10 PM EST (2/24)
Length of Visible Light 12h 02m
Length of Day
11h 09m
Waning Crescent, 28% of the Moon is Illuminated
Feb 24
Waning Crescent
Mar 1
New
Mar 8
First Quarter
Mar 16
Full
Mar 23
Last Quarter

Hourly Weather History & Observations

Time (EST) Temp. Windchill Dew Point Humidity Pressure Visibility Wind Dir Wind Speed Gust Speed Precip Events Conditions
12:15 AM 32.0 °F 20.1 °F 32.0 °F 100% 29.94 in 5.0 mi WNW 19.6 mph 24.2 mph N/A Snow Light Snow
12:16 AM 32.0 °F 20.8 °F 32.0 °F 100% 29.95 in 5.0 mi WNW 17.3 mph 24.2 mph N/A Snow Light Snow
12:35 AM 32.0 °F 20.1 °F 32.0 °F 100% 29.94 in 7.0 mi West 19.6 mph 23.0 mph N/A Snow Light Snow
12:55 AM 32.0 °F 19.5 °F 32.0 °F 100% 29.94 in 4.0 mi West 21.9 mph - N/A Snow Light Snow
1:15 AM 32.0 °F 20.8 °F 32.0 °F 100% 29.93 in 7.0 mi West 17.3 mph - N/A Snow Light Snow
1:35 AM 30.2 °F 18.5 °F 30.2 °F 100% 29.93 in 10.0 mi West 17.3 mph 24.2 mph N/A   Overcast
1:55 AM 30.2 °F 18.5 °F 30.2 °F 100% 29.93 in 10.0 mi WNW 17.3 mph 24.2 mph N/A   Overcast
2:15 AM 30.2 °F 18.1 °F 28.4 °F 93% 29.92 in 10.0 mi West 18.4 mph 25.3 mph N/A   Overcast
2:35 AM 30.2 °F 19.3 °F 26.6 °F 86% 29.92 in 10.0 mi West 15.0 mph 18.4 mph N/A   Overcast
2:55 AM 28.4 °F 16.6 °F 26.6 °F 93% 29.92 in 10.0 mi WNW 16.1 mph 19.6 mph N/A   Mostly Cloudy
3:15 AM 26.6 °F 13.8 °F 23.0 °F 86% 29.92 in 10.0 mi West 17.3 mph 25.3 mph N/A   Mostly Cloudy
3:35 AM 26.6 °F 14.7 °F 21.2 °F 80% 29.92 in 10.0 mi WNW 15.0 mph 23.0 mph N/A   Scattered Clouds
3:55 AM 24.8 °F 11.9 °F 19.4 °F 80% 29.92 in 10.0 mi West 16.1 mph 24.2 mph N/A   Clear
4:15 AM 24.8 °F 10.3 °F 19.4 °F 80% 29.92 in 10.0 mi WNW 20.7 mph 25.3 mph N/A   Clear
4:35 AM 23.0 °F 9.6 °F 17.6 °F 80% 29.92 in 10.0 mi West 16.1 mph 21.9 mph N/A   Clear
4:55 AM 23.0 °F 8.7 °F 17.6 °F 80% 29.92 in 10.0 mi West 18.4 mph 24.2 mph N/A   Clear
5:15 AM 21.2 °F 6.8 °F 15.8 °F 80% 29.92 in 10.0 mi WNW 17.3 mph 24.2 mph N/A   Clear
5:35 AM 21.2 °F 7.3 °F 15.8 °F 80% 29.92 in 10.0 mi West 16.1 mph 24.2 mph N/A   Clear
5:55 AM 21.2 °F 6.4 °F 15.8 °F 80% 29.92 in 10.0 mi West 18.4 mph 23.0 mph N/A   Clear
6:15 AM 21.2 °F 7.3 °F 14.0 °F 74% 29.92 in 10.0 mi West 16.1 mph 25.3 mph N/A   Clear
6:35 AM 21.2 °F 6.8 °F 12.2 °F 68% 29.92 in 10.0 mi West 17.3 mph 23.0 mph N/A   Clear
6:55 AM 19.4 °F 4.1 °F 12.2 °F 74% 29.92 in 10.0 mi West 18.4 mph 24.2 mph N/A   Clear
7:15 AM 19.4 °F 5.5 °F 14.0 °F 80% 29.93 in 10.0 mi West 15.0 mph 24.2 mph N/A   Clear
7:35 AM 19.4 °F 4.5 °F 14.0 °F 80% 29.94 in 10.0 mi West 17.3 mph - N/A   Clear
7:55 AM 19.4 °F 5.5 °F 14.0 °F 80% 29.95 in 10.0 mi West 15.0 mph 20.7 mph N/A   Clear
8:15 AM 21.2 °F 6.8 °F 12.2 °F 68% 29.95 in 10.0 mi West 17.3 mph 24.2 mph N/A   Clear
8:35 AM 21.2 °F 6.4 °F 10.4 °F 63% 29.96 in 10.0 mi West 18.4 mph 27.6 mph N/A   Clear
8:55 AM 21.2 °F 6.8 °F 10.4 °F 63% 29.96 in 10.0 mi West 17.3 mph 24.2 mph N/A   Clear
9:15 AM 23.0 °F 9.6 °F 10.4 °F 59% 29.98 in 10.0 mi West 16.1 mph 24.2 mph N/A   Clear
9:35 AM 24.8 °F 11.5 °F 10.4 °F 54% 29.98 in 10.0 mi West 17.3 mph 23.0 mph N/A   Clear
9:55 AM 24.8 °F 10.0 °F 6.8 °F 46% 29.98 in 10.0 mi West 21.9 mph 27.6 mph N/A   Clear
10:15 AM 24.8 °F 10.7 °F 6.8 °F 46% 29.98 in 10.0 mi West 19.6 mph 28.8 mph N/A   Clear
10:35 AM 26.6 °F 12.4 °F 3.2 °F 37% 29.98 in 10.0 mi West 21.9 mph 29.9 mph N/A   Clear
10:55 AM 26.6 °F 13.4 °F 3.2 °F 37% 29.98 in 10.0 mi West 18.4 mph 32.2 mph N/A   Clear
11:15 AM 26.6 °F 12.0 °F 3.2 °F 37% 29.98 in 10.0 mi West 23.0 mph 31.1 mph N/A   Clear
11:35 AM 28.4 °F 15.4 °F 3.2 °F 34% 29.98 in 10.0 mi West 19.6 mph 31.1 mph N/A   Clear
11:55 AM 28.4 °F 15.8 °F 3.2 °F 34% 29.98 in 10.0 mi West 18.4 mph 29.9 mph N/A   Clear
12:15 PM 28.4 °F 14.4 °F 1.4 °F 31% 29.96 in 10.0 mi West 23.0 mph 35.7 mph N/A   Clear
12:35 PM 30.2 °F 17.8 °F 5.0 °F 34% 29.96 in 10.0 mi WNW 19.6 mph 27.6 mph N/A   Clear
12:55 PM 30.2 °F 17.1 °F 5.0 °F 34% 29.96 in 10.0 mi West 21.9 mph 27.6 mph N/A   Clear
1:15 PM 28.4 °F 14.1 °F 3.2 °F 34% 29.96 in 10.0 mi West 24.2 mph 38.0 mph N/A   Clear
1:56 PM 30.2 °F 15.7 °F 3.2 °F 32% 29.97 in 10.0 mi West 27.6 mph 39.1 mph N/A   Clear
2:15 PM 30.2 °F 17.1 °F 3.2 °F 32% 29.96 in 10.0 mi West 21.9 mph 38.0 mph N/A   Clear
2:16 PM 30.2 °F 17.8 °F 3.2 °F 32% 29.96 in 10.0 mi West 19.6 mph 38.0 mph N/A   Clear
2:35 PM 28.4 °F 13.8 °F 3.2 °F 34% 29.96 in 10.0 mi West 25.3 mph 38.0 mph N/A   Clear
2:55 PM 28.4 °F 13.5 °F 3.2 °F 34% 29.97 in 10.0 mi West 26.5 mph 36.8 mph N/A   Clear
3:15 PM 30.2 °F 17.4 °F 5.0 °F 34% 29.99 in 10.0 mi West 20.7 mph 26.5 mph N/A   Clear
3:35 PM 30.2 °F 17.1 °F 5.0 °F 34% 29.99 in 10.0 mi WNW 21.9 mph 31.1 mph N/A   Clear
3:55 PM 28.4 °F 15.1 °F 5.0 °F 37% 29.99 in 10.0 mi West 20.7 mph 32.2 mph N/A   Clear
4:15 PM 28.4 °F 14.7 °F 5.0 °F 37% 30.00 in 10.0 mi West 21.9 mph 29.9 mph N/A   Clear
4:30 PM 28.4 °F 14.4 °F 5.0 °F 37% 30.01 in 10.0 mi WNW 23.0 mph 28.8 mph N/A   Clear
4:55 PM 28.4 °F 14.7 °F 3.2 °F 34% 30.01 in 10.0 mi West 21.9 mph 36.8 mph N/A   Clear
5:15 PM 26.6 °F 12.7 °F 3.2 °F 37% 30.01 in 10.0 mi West 20.7 mph 28.8 mph N/A   Clear
5:55 PM 26.6 °F 13.8 °F 3.2 °F 37% 30.02 in 10.0 mi West 17.3 mph 28.8 mph N/A   Clear
6:00 PM 24.8 °F 10.0 °F 1.4 °F 36% 30.02 in 10.0 mi West 21.9 mph 26.5 mph N/A   Clear
6:20 PM 24.8 °F 11.5 °F 1.4 °F 36% 30.03 in 10.0 mi West 17.3 mph 29.9 mph N/A   Clear
6:35 PM 24.8 °F 10.3 °F 1.4 °F 36% 30.03 in 10.0 mi West 20.7 mph 29.9 mph N/A   Clear
6:55 PM 24.8 °F 10.7 °F 1.4 °F 36% 30.03 in 10.0 mi WNW 19.6 mph 26.5 mph N/A   Clear
7:15 PM 23.0 °F 8.3 °F 3.2 °F 43% 30.04 in 10.0 mi West 19.6 mph 26.5 mph N/A   Clear
7:35 PM 23.0 °F 8.3 °F 3.2 °F 43% 30.04 in 10.0 mi WNW 19.6 mph 25.3 mph N/A   Clear
7:55 PM 23.0 °F 7.6 °F 3.2 °F 43% 30.04 in 10.0 mi West 21.9 mph 29.9 mph N/A   Clear
8:15 PM 23.0 °F 7.2 °F 3.2 °F 43% 30.03 in 10.0 mi West 23.0 mph 28.8 mph N/A   Clear
8:30 PM 21.2 °F 6.0 °F 3.2 °F 46% 30.03 in 10.0 mi WNW 19.6 mph 31.1 mph N/A   Clear
8:55 PM 21.2 °F 6.0 °F 3.2 °F 46% 30.03 in 10.0 mi WNW 19.6 mph 27.6 mph N/A   Clear
9:15 PM 21.2 °F 6.0 °F 5.0 °F 50% 30.02 in 10.0 mi WNW 19.6 mph 27.6 mph N/A   Clear
9:35 PM 21.2 °F 6.4 °F 6.8 °F 54% 30.02 in 10.0 mi West 18.4 mph 27.6 mph N/A   Clear
9:55 PM 21.2 °F 6.8 °F 6.8 °F 54% 30.03 in 10.0 mi West 17.3 mph 25.3 mph N/A   Clear
10:15 PM 21.2 °F 7.3 °F 6.8 °F 54% 30.03 in 10.0 mi West 16.1 mph 24.2 mph N/A   Clear
10:35 PM 21.2 °F 7.3 °F 6.8 °F 54% 30.03 in 10.0 mi West 16.1 mph 20.7 mph N/A   Clear
10:55 PM 21.2 °F 6.4 °F 6.8 °F 54% 30.02 in 10.0 mi West 18.4 mph 25.3 mph N/A   Clear
11:15 PM 21.2 °F 7.8 °F 6.8 °F 54% 30.02 in 10.0 mi West 15.0 mph 23.0 mph N/A   Clear
11:35 PM 21.2 °F 7.3 °F 6.8 °F 54% 30.01 in 10.0 mi West 16.1 mph 23.0 mph N/A   Clear
11:50 PM 21.2 °F 7.8 °F 6.8 °F 54% 30.01 in 10.0 mi West 15.0 mph - N/A   Clear